Torna al catalogo

ONEWEB-0620

AttivoComunicazioniPO
NORAD 55161·PAYLOAD·🇬🇧 United Kingdom

Lanciato Jan 10, 2023 da Cape Canaveral Space Force Station

Loading…

Prossimi Passaggi (prossime 24 ore)

TLE

AggiornatoSource: CelesTrak SupGP

Epoca: Sep 14, 2026, 22:43 UTC

1 55161C 23004X   26257.94702963 -.00002912  00000+0 -82265-2 0  2576
2 55161  87.8963   3.2285 0001499 103.0890 292.5103 13.11418832    10

Traccia ONEWEB-0620 in tempo reale con AllMySat

Download on the App Store